Simultaneous Nadir Overpasses (SNOs) Predictions

Prediction of SNOs between AQUA and METOP-A Satellite Orbit:

Table of predicted SNOs for the next 14.0 days since TLE Epoch: 10/4/2019
Index Date (AQUA) Time (AQUA) Lat,Lon (AQUA) SZA (AQUA ) Date (METOP-A) Time (METOP-A) Lat,Lon (METOP-A) SZA (METOP-A ) Distance(km) Time Diff (sec)
1 10/06/2019 23:45:44 75.49, 173.77 80.82 10/06/2019 23:45:14 75.48, 173.66 80.81 3.33 30
2 10/07/2019 00:35:11 -75.54, -18.73 99.12 10/07/2019 00:35:54 -75.56, -18.77 99.10 2.30 43
3 10/09/2019 19:20:00 75.53,-119.89 81.92 10/09/2019 19:19:37 75.54,-119.81 81.94 2.80 23
4 10/09/2019 20:09:27 -75.57, 47.63 98.03 10/09/2019 20:10:18 -75.57, 47.63 98.02 0.84 51
5 10/12/2019 14:04:40 -75.10, 140.07 97.49 10/12/2019 14:03:32 -75.03, 137.74 97.48 67.33 68
6 10/12/2019 14:54:15 75.51, -53.42 82.97 10/12/2019 14:54:01 75.55, -53.42 83.00 3.99 14
7 10/12/2019 15:43:43 -75.60, 113.98 96.94 10/12/2019 15:44:42 -75.59, 114.02 96.95 1.57 59
8 10/15/2019 09:39:01 -75.44,-154.41 96.09 10/15/2019 09:37:48 -75.38,-154.91 96.13 15.59 73
9 10/15/2019 10:28:30 75.56, 12.89 84.06 10/15/2019 10:28:24 75.56, 12.97 84.06 2.17 6
10 10/15/2019 11:17:57 -75.58,-179.54 95.91 10/15/2019 11:19:05 -75.60,-179.59 95.90 1.99 68
11 10/18/2019 05:13:18 -75.53, -88.24 94.96 10/18/2019 05:12:09 -75.53, -88.10 94.96 3.73 69
12 10/18/2019 06:02:45 75.56, 79.33 85.08 10/18/2019 06:02:48 75.57, 79.35 85.10 1.45 3




NCC Satellite Simultaneous Nadir Overpasses (SNOs) Prediction Service
